STARLINK-1806

decayed
NORAD ID: 47549 Int'l Des: 2021-009 Owner: SPXS Country: US Constellation: starlink
LEOCIRCULAR
Group

About STARLINK-1806

Description loading...

Altitude History

Altitude vs Time

uPlot chart will show altitude changes over time

Two-Line Element Set

1 47549U 21009B 25140.17609458 .20869191 12471-4 14414-2 0 9994
2 47549 53.0302 208.4593 0009553 308.3805 101.0531 16.40257850237869
Epoch: May 20, 2025 • Age: 2605 hours

Current Status

Position data unavailable
Launch Date Feb 4, 2021
Age 4.5 years
Decay Date May 20, 2025
Type internet

Technical Details

Classification Payload
Mass 260.00 kg
Dry Mass 248.00 kg
Total Mass 260.00 kg
Length 0.20 m
Diameter 2.80 m
Span 9.00 m
Shape Box + pan
Manufacturer SPXS
Bus Type Starlink
Phase Status Unknown Transfer Status
Owner/State SPXS/US

Large Constellations

Loading constellations...